Location: Ferma
(41.9500°N, 44.5167°E)
Time: 05:53:26
(UTC+00:00)

Cosmos 1269 Rocket - Pass Details

Date: 06 June 2022
Orbit: 773 x 778 km, 74.1° (Epoch: 03 July)

Event Time Altitude Azimuth Distance (km) Brightness Sun altitude
Rises 21:14:16 0° 332° (NNW) 3,257 8.2 -25.3°
Reaches altitude 10° 21:16:47 10° 324° (NW) 2,326 7.1 -25.2°
Enters shadow 21:21:29 38° 262° (W) 1,179 4.8 -25.2°
